星链-34470 (STARLINK-34470)

导读

STARLINK-34470是美国SpaceX公司星链(Starlink)星座的一员,于2025年6月28日发射入轨。作为星链二代Gen2系统的组网卫星,它运行在近地轨道,配备氩气霍尔推进器与激光星间链路,兼容多频段通信,可大幅提升星座通信容量,为全球提供高速宽带互联网服务,支持航空、海事、应急通信等多元场景,是SpaceX构建全球卫星互联网星座的重要组成部分。

Basic Information
目录编号:
64703
目录名称:
STARLINK-34470
国际标识:
2025-142H
轨道中心:
EARTH
卫星名称:
星链-34470
卫星全名:
星链-34470 (STARLINK-34470)
卫星状态:
在轨 (已飞行350 天)
发射日期:
2025-06-28 UTC
国别 :
美国 (US)
星等 :
--
Orbit Information
数据来源 国际轨道数据 AOE轨道数据
星历时间 2026-06-13T19:33:23+0800
12小时前
查看轨道信息
2026-06-12T01:00:00+0800
2天前
查看轨道信息
半长轴 6950.191km 6950.099km
偏心率 0.0003049 0.0002945
轨道倾角 70.002° 70.000°
近地点辐角 268.147° 269.179°
升交点赤经 72.738° 77.206°
平近点角 91.934° 249.132°
近地点 569.934km 569.915km
远地点 574.174km 574.009km
周期 96.107分钟 96.105分钟
每日圈数 14.983309 14.983606
Detailed Information
固有亮度:
5
最大亮度:
2.5
卫星平台:
Starlink V1.0
覆盖范围:
全球
运营商:
太空探索技术公司
运营商所在国:
美国
制造商(研发单位):
太空探索技术公司
制造商所在国:
美国
使用方式:
暂无
Satellite Introduction
Starlink 计划是 SpaceX 推出的全球卫星互联网项目,通过发射低轨道卫星,为全球尤其是偏远地区提供高速、低延迟的互联网服务。自 2019 年起,Starlink 已部署数千颗卫星,旨在缩小全球数字鸿沟,推动互联网普及。该项目还为军事、航空等行业提供通信支持,带来广泛经济效益。
2D Orbit Map
3D Orbit Map
Orbit Altitude Analysis Chart
Orbit Inclination Analysis Chart
Orbit Comprehensive Analysis Chart
View Comprehensive Chart